Flag for Canada Weather past 2 weeks in Kuujjuaq, Quebec, Canada

Now
43 °F

Scattered clouds.


Feels Like: 36 °F
Forecast: N/A
Wind: 13 mph from Northeast

Location: Kuujjuaq

Current Time: Apr 27, 2015 at 6:56:43 PM

Latest Report: Apr 27, 2015 at 6:00 PM


Visibility: 15 mi

Pressure: 30.31 "Hg

Humidity: 66%

Dew point: 32 °F

Location of KuujjuaqLocation

Historic Weather in Kuujjuaq — Graph

°F

Kuujjuaq temperature yesterday

Maximum temperature yesterday: 45 °F (at 1:00 PM)
Minimum temperature yesterday: 30 °F (at 3:00 AM)
Average temperature yesterday: 37 °F

Past Weeks' High & Low Weather Summary

 TemperatureHumidityPressure
High48 °F (Apr 13, 12:00 PM)100% (Apr 14, 7:00 AM)30.42 "Hg (Apr 14, 7:00 AM)
Low0 °F (Apr 15, 4:00 AM)29% (Apr 18, 1:00 PM)28.86 "Hg (Apr 14, 8:00 AM)
Average27 °F73%29.96 "Hg
* Reported Apr 12 6:00 PM — Apr 27 6:00 PM, Kuujjuaq, Weather by CustomWeather, © 2015

Note: Actual official high and low records may vary slightly from our data, if they occured in-between our weather recording intervals... More about our weather records

Advertising

Kuujjuaq weather history for previous 24 hours

 ConditionsComfort  
Time TempWeatherWind HumidityBarometerVisibility
6:00 PM
Mon, Apr 27
43 °FScattered clouds.13 mph66%30.31 "Hg15 mi
5:00 PM45 °FScattered clouds.12 mph66%30.32 "Hg15 mi
4:00 PM46 °FBroken clouds.12 mph66%30.32 "Hg15 mi
3:00 PM48 °FBroken clouds.9 mph54%30.33 "Hg15 mi
2:00 PM46 °FScattered clouds.6 mph57%30.35 "Hg15 mi
1:00 PM45 °FPartly sunny.3 mph57%30.36 "Hg15 mi
12:00 PM41 °FPartly sunny.5 mph66%30.38 "Hg15 mi
11:00 AM39 °FPartly sunny.2 mph70%30.39 "Hg15 mi
10:00 AM36 °FPartly sunny.2 mph87%30.40 "Hg15 mi
9:00 AM34 °FBroken clouds.No wind87%30.42 "Hg15 mi
8:50 AM34 °FBroken clouds.2 mph87%30.41 "Hg15 mi
8:00 AM32 °FMostly cloudy.No wind93%30.42 "Hg8 mi
7:00 AM30 °FIce fog.No wind93%30.41 "Hg1 mi
6:50 AM30 °FIce fog.No wind93%30.41 "Hg1 mi
6:00 AM28 °FIce fog.No wind100%30.40 "Hg1 mi
5:00 AM28 °FIce fog.3 mph100%30.40 "Hg1 mi
4:00 AM28 °FFog.5 mph100%30.39 "Hg4 mi
3:00 AM28 °FMostly cloudy.3 mph100%30.40 "Hg15 mi
2:00 AM30 °FMostly cloudy.7 mph93%30.40 "Hg15 mi
1:00 AM30 °FPassing clouds.5 mph93%30.40 "Hg15 mi
12:00 AM30 °FOvercast.6 mph93%30.39 "Hg15 mi
11:00 PM
Sun, Apr 26
32 °FOvercast.6 mph87%30.40 "Hg15 mi
10:00 PM32 °FPassing clouds.5 mph87%30.40 "Hg15 mi
9:00 PM36 °FPartly sunny.9 mph81%30.40 "Hg15 mi
8:00 PM37 °FPartly sunny.6 mph75%30.40 "Hg15 mi
7:00 PM37 °FPartly sunny.10 mph75%30.40 "Hg15 mi
6:00 PM39 °FPartly sunny.13 mph70%30.39 "Hg15 mi
Weather by CustomWeather, © 2015

See weather overviewHow to use our weather pages